Location: Unspecified
(0.0000°N, 0.0000°E)
Time: 22:20:06
(UTC+00:00)

Hubble Space Telescope - Pass Details

Date: 04 December 2025
Orbit: 480 x 483 km, 28.5° (Epoch: 08 December)

Event Time Altitude Azimuth Distance (km) Brightness Sun altitude
Exits shadow 04:49:21 23° 315° (NW) 1,050 1.7 -14.1°
Maximum altitude 04:51:31 62° 30° (NNE) 538 0.8 -13.6°
Drops below altitude 10° 04:55:15 10° 112° (ESE) 1,642 4.8 -12.7°
Sets 04:57:28 0° 115° (ESE) 2,522 6.4 -12.2°
